Regional Weather Roundup
Issued by NWS Boston, MA

Home | Current Version | Previous Version | Text Only | Print | Product List | Glossary On
Versions: 1 2 3 4 5 6 7 8 9 10 11 12 13 14 15 16 17 18 19 20 21 22 23 24 25 26 27 28 29 30 31 32 33 34 35 36 37 38 39 40 41 42 43 44 45 46 47 48 49 50
708
ASUS41 KBOX 281210
RWRBOX

REGIONAL WEATHER ROUNDUP
NATIONAL WEATHER SERVICE TAUNTON MA
800 AM EDT SUN MAY 28 2017

NOTE:  "FAIR" INDICATES FEW OR NO CLOUDS BELOW 12,000 FEET WITH NO
SIGNIFICANT WEATHER AND/OR OBSTRUCTIONS TO VISIBILITY.

MAZALL-281300-
EASTERN MASSACHUSETTS

CITY           SKY/WX    TMP DP  RH WIND       PRES   REMARKS
BOSTON         PTSUNNY   59  54  83 SW6       29.98R
6HR MIN TEMP:  54; 6HR MAX TEMP:  59;

BEVERLY        PTSUNNY   60  55  83 VRB3      29.97R
LAWRENCE       CLOUDY    54  53  97 CALM      30.00R FOG
BEDFORD        CLOUDY    58  51  78 CALM      29.97R
BLUE HILL        N/A     56  52  86 SW7       29.97R
NORWOOD        CLOUDY    60  54  80 SW6       29.97R
MARSHFIELD     MOSUNNY   59  52  77 SW8       29.98R
PLYMOUTH       CLOUDY    57  49  74 SW9       29.99R
TAUNTON        CLOUDY    57  52  83 S3        29.99R
NEW BEDFORD    CLOUDY    56  51  84 S5        29.98R
$$

MAZALL-281300-
CAPE COD AND THE ISLANDS

CITY           SKY/WX    TMP DP  RH WIND       PRES   REMARKS
FALMOUTH         N/A    N/A N/A N/A MISG        N/A
HYANNIS        MOSUNNY   59  48  67 SW7       29.98R
CHATHAM        CLOUDY    57  47  69 VRB5      30.01R
PROVINCETOWN   CLOUDY    57  50  77 S9        30.00R
NANTUCKET      SUNNY     56  47  71 S5        29.99R
MARTHAS VNYRD  CLOUDY    57  49  74 SW5       29.99R
$$

MAZALL-281300-
CENTRAL AND WESTERN MASSACHUSETTS

CITY           SKY/WX    TMP DP  RH WIND       PRES   REMARKS
WORCESTER      CLOUDY    57  52  83 CALM      29.97R
6HR MIN TEMP:  55; 6HR MAX TEMP:  57;

FITCHBURG      CLOUDY    57  51  80 NE5       29.98R
ORANGE         CLOUDY    58  55  90 CALM      29.96R
SPRINGFIELD    CLOUDY    59  54  82 CALM      29.95R
WESTFIELD      CLOUDY    59  56  89 CALM      29.95R
NORTH ADAMS    CLOUDY    58  54  86 CALM      29.95S
$$

RIZALL-281300-
RHODE ISLAND

CITY           SKY/WX    TMP DP  RH WIND       PRES   REMARKS
PROVIDENCE     CLOUDY    57  54  89 SW7       29.98R
6HR MIN TEMP:  55; 6HR MAX TEMP:  57;

NEWPORT        CLOUDY    56  53  90 SW8       29.98R
BLOCK ISLAND   CLOUDY    56  52  86 S7        29.98S
SMITHFIELD     CLOUDY    56  53  90 CALM      29.98R
WESTERLY       CLOUDY    57  52  83 S5        29.98R
$$

CTZALL-281300-
CONNECTICUT

CITY           SKY/WX    TMP DP  RH WIND       PRES   REMARKS
BRADLEY INTL   CLOUDY    59  55  87 S3        29.96R
6HR MIN TEMP:  57; 6HR MAX TEMP:  59;

HARTFORD       CLOUDY    60  55  83 S5        29.95S
BRIDGEPORT     CLOUDY    61  56  83 E6        29.96R
DANBURY        CLOUDY    59  57  93 CALM      29.97R
GROTON         CLOUDY    58  53  84 SE5       29.97R
NEW HAVEN      CLOUDY    60  55  83 E6        29.96R
CHESTER        PTSUNNY   57  55  94 CALM      29.97R
MERIDEN        CLOUDY    59  55  87 CALM      29.96R
WILLIMANTIC    CLOUDY    59  54  83 CALM      29.97S
OXFORD         PTSUNNY   57  52  82 CALM      29.96R
$$

MEZ002-015-021-024-NHZ003-005-008-011-012-014-VTZ005-008-281300-
NORTHERN NEW ENGLAND

CITY           SKY/WX    TMP DP  RH WIND       PRES   REMARKS
PORTLAND ME    SUNNY     53  46  77 S5        30.00R
6HR MIN TEMP:  45; 6HR MAX TEMP:  54;

BANGOR ME      SUNNY     52  46  80 S8        29.98S
CONCORD NH     CLOUDY    55  49  80 CALM      29.98R
MANCHESTER NH  MOSUNNY   56  47  71 NE3       29.97R
NASHUA NH      PTSUNNY   54  50  86 CALM      29.99R
PORTSMOUTH NH  CLOUDY    53  50  92 NW3       29.97R
JAFFREY NH     CLOUDY    55  54  96 N3        29.97R
KEENE NH       CLOUDY    57  55  93 CALM      29.97R
BURLINGTON VT  PTSUNNY   59  52  77 CALM      29.94S
MT. WASHINGTON MOSUNNY   41  36  81 NW7         N/A
$$

NYZ052-076-281300-
EASTERN NEW YORK

CITY           SKY/WX    TMP DP  RH WIND       PRES   REMARKS
ALBANY         CLOUDY    64  56  75 E3        29.93F
6HR MIN TEMP:  60; 6HR MAX TEMP:  65;

NEW YORK CITY  CLOUDY    60  57  89 E6        29.94R FOG
6HR MIN TEMP:  58; 6HR MAX TEMP:  62;

$$

ANZALL-281300-
MARINE OBSERVATIONS

STATION/POSITION TIME  TEMP    WIND        PRES    VSBY  WAVE
                       AIR SEA DIR/SP/G                  HT/PER
                 (UTC) (F)     (DEG/KT/KT) (MB)    (MI)  (FT/S)
BOSTON BUOY      1050   54 53  160/  8/  8 1013.6          2/ 9
BUZZARDS BAY     1100   54     210/  8/  9 1015.1R
NANTUCKET SOUND  1150      53              1015.6R         1
MASS BAY-STELLWA 1104   54 51  170/  8/ 10 1013.7R
ISLE OF SHOALS   1100   51     170/  3/  4 1014.0R
S OF BLOCK IS    1155      53                N/A           3/ 8
$$

......................KEY.........................
  SKY/WX - SKY CONDITION/PRESENT WEATHER
  TMP    - TEMPERATURE IN FAHRENHEIT
  DWPT   - DEWPOINT IN FAHRENHEIT
  RH     - RELATIVE HUMIDITY IN PERCENT
  WIND   - DIRECTION AND SPEED IN MPH
  PRES   - MEAN SEA LEVEL PRESSURE IN INCHES OF HG
  WCI    - WIND CHILL INDEX
  VSB    - VISIBILITY IN MILES
  HX     - HEAT INDEX
  TC     - TEMPERATURE IN CELSIUS
  VRB    - VARIABLE WIND DIRECTION
  N/A    - NOT AVAILABLE




USA.gov is the U.S. government's official web portal to all federal, state and local government web resources and services.